Вернуться в каталог

SL-14 R/B

АктивенPO
NORAD 17291·ROCKET BODY·🇷🇺 Russia

Запущен Jan 5, 1987 с Plesetsk Cosmodrome

Loading…

Ближайшие Пролёты (ближайшие 24 часа)

TLE

СвежийSource: Space-Track

Эпоха: Sep 14, 2026, 14:59 UTC

1 17291U 87001B   26257.62497390  .00000024  00000-0  84406-5 0  9991
2 17291  82.4695  28.8052 0010087 301.5012  58.5162 13.84695060  5665

Отслеживайте SL-14 R/B в реальном времени с AllMySat

Download on the App Store